GW0898 Weather Reports


Display with metric or nautical units.
time (UTC)temp
F
wind
direction
speed
MPH
gust
MPH
rain 1hr
in
rain 24hr
in
rain mn
in
humidity
%
barometer
mb
20260906173308 86 100 1.0 4.0 0.00 0.00 0.00 73 1010.6
20260906172805 86 192 1.0 4.0 0.00 0.00 0.00 73 1010.7
20260906172252 87 223 1.0 4.0 0.00 0.00 0.00 72 1010.7
20260906172020 87 143 2.0 4.0 0.00 0.00 0.00 73 1010.7
20260906171250 87 178 2.0 4.0 0.00 0.00 0.00 72 1010.7
20260906170741 87 121 1.0 7.0 0.00 0.00 0.00 72 1010.7
20260906170728 87 196 2.0 7.0 0.00 0.00 0.00 72 1010.7
20260906165721 86 157 2.0 7.0 0.00 0.00 0.00 73 1010.9
20260906165223 86 130 2.0 5.0 0.00 0.00 0.00 74 1010.9
20260906164714 85 112 2.0 5.0 0.00 0.00 0.00 76 1010.9
20260906164434 85 105 2.0 7.0 0.00 0.00 0.00 76 1011.0
20260906163702 85 140 2.0 7.0 0.00 0.00 0.00 75 1010.9
20260906163157 85 110 2.0 7.0 0.00 0.00 0.00 75 1010.9
20260906162650 85 173 1.0 5.0 0.00 0.00 0.00 75 1011.0
20260906162140 85 106 2.0 5.0 0.00 0.00 0.00 75 1011.0
20260906161638 85 107 3.0 9.0 0.00 0.00 0.00 74 1010.9
20260906161132 85 176 3.0 9.0 0.00 0.00 0.00 74 1010.6
20260906160626 85 139 2.0 6.0 0.00 0.00 0.00 74 1010.7
20260906160120 86 158 2.0 5.0 0.00 0.00 0.00 74 1010.7
20260906155608 86 172 2.0 9.0 0.00 0.00 0.00 74 1010.9
20260906155111 85 196 2.0 9.0 0.00 0.00 0.00 74 1010.9
20260906154603 85 82 1.0 4.0 0.00 0.00 0.00 76 1010.9
20260906154102 85 81 2.0 6.0 0.00 0.00 0.00 77 1010.8
20260906153601 84 103 2.0 6.0 0.00 0.00 0.00 77 1010.8
20260906153104 84 131 2.0 7.0 0.00 0.00 0.00 79 1010.8
20260906152824 84 80 1.0 7.0 0.00 0.00 0.00 79 1010.9
20260906152100 83 129 1.0 5.0 0.00 0.00 0.00 80 1010.9
20260906151556 83 165 2.0 4.0 0.00 0.00 0.00 81 1010.9
20260906151053 83 98 2.0 4.0 0.00 0.00 0.00 81 1010.8
20260906150552 83 126 2.0 4.0 0.00 0.00 0.00 81 1010.8
20260906150052 83 163 2.0 5.0 0.00 0.00 0.00 81 1010.8
20260906145552 83 157 2.0 7.0 0.00 0.00 0.00 82 1010.7
20260906145041 82 103 3.0 7.0 0.00 0.00 0.00 82 1010.7
20260906144538 82 149 3.0 7.0 0.00 0.00 0.00 84 1010.6
20260906144042 81 139 3.0 7.0 0.00 0.00 0.00 86 1010.7
20260906143803 81 133 3.0 11.0 0.00 0.00 0.00 87 1010.7
20260906143301 81 144 3.0 11.0 0.00 0.00 0.00 88 1010.6
20260906142537 80 142 2.0 6.0 0.00 0.00 0.00 91 1011.0
20260906142037 80 143 2.0 5.0 0.00 0.00 0.00 93 1011.0
20260906141537 79 140 2.0 5.0 0.00 0.00 0.00 95 1010.9
20260906141035 79 175 2.0 6.0 0.00 0.00 0.00 96 1011.3
20260906140535 78 130 2.0 6.0 0.00 0.00 0.00 96 1011.3
20260906140036 78 113 2.0 6.0 0.00 0.00 0.00 96 1011.2
20260906135533 78 158 2.0 12.0 0.00 0.00 0.00 97 1011.2
20260906135033 78 163 2.0 12.0 0.00 0.00 0.00 97 1011.2
20260906134534 78 148 2.0 7.0 0.00 0.00 0.00 97 1011.2
20260906134515 77 142 2.0 5.0 0.00 0.00 0.00 98 1011.0
20260906133536 77 144 2.0 7.0 0.00 0.00 0.00 98 1011.0
20260906133027 77 165 2.0 7.0 0.00 0.00 0.00 98 1011.0
20260906132521 77 141 2.0 7.0 0.00 0.00 0.00 98 1010.8
20260906132021 77 124 2.0 6.0 0.00 0.00 0.00 98 1010.8
20260906131521 77 133 2.0 6.0 0.00 0.00 0.00 99 1010.7
20260906131240 77 132 3.0 9.0 0.00 0.00 0.00 99 1010.7
20260906130509 77 152 3.0 9.0 0.00 0.00 0.00 99 1010.7
20260906130009 77 154 2.0 7.0 0.00 0.00 0.00 99 1010.7
20260906125511 77 103 2.0 6.0 0.00 0.00 0.00 99 1010.4
20260906125010 77 148 2.0 6.0 0.00 0.00 0.00 99 1010.4
20260906124510 77 133 2.0 5.0 0.00 0.00 0.00 99 1010.4
20260906124007 76 69 2.0 5.0 0.00 0.00 0.00 99 1010.4
20260906123506 76 134 2.0 6.0 0.00 0.00 0.00 99 1010.4
20260906123235 76 137 2.0 6.0 0.00 0.00 0.00 99 1010.4
20260906122507 76 134 2.0 5.0 0.00 0.00 0.00 99 1010.1
20260906122002 76 86 2.0 5.0 0.00 0.00 0.00 99 1010.1
20260906121451 76 166 1.0 4.0 0.00 0.00 0.00 99 1010.1
20260906120938 76 135 1.0 5.0 0.00 0.00 0.00 99 1009.9
20260906120915 76 144 2.0 5.0 0.00 0.00 0.00 99 1009.9
20260906115926 76 134 2.0 5.0 0.00 0.00 0.00 99 1009.9
20260906115419 76 115 2.0 5.0 0.00 0.00 0.00 99 1009.7
20260906114921 76 145 2.0 5.0 0.00 0.00 0.00 99 1009.7
20260906114413 76 117 2.0 6.0 0.00 0.00 0.00 99 1009.7
20260906113910 76 111 2.0 6.0 0.00 0.00 0.00 99 1009.5
20260906113410 76 77 2.0 6.0 0.00 0.00 0.00 99 1009.5
20260906112910 76 146 2.0 6.0 0.00 0.00 0.00 99 1009.5
20260906112412 76 153 2.0 5.0 0.00 0.00 0.00 99 1009.7
20260906111908 76 126 2.0 6.0 0.00 0.00 0.00 98 1009.7
20260906111623 76 116 2.0 6.0 0.00 0.00 0.00 98 1009.7
20260906110906 76 105 3.0 7.0 0.00 0.00 0.00 98 1009.6
20260906110408 76 127 3.0 7.0 0.00 0.00 0.00 98 1009.6
20260906105906 76 101 3.0 8.0 0.00 0.00 0.00 98 1009.6
20260906105636 76 126 3.0 8.0 0.00 0.00 0.00 98 1009.3
20260906104905 76 79 3.0 6.0 0.00 0.00 0.00 98 1009.3
20260906104405 76 158 2.0 5.0 0.00 0.00 0.00 97 1009.3
20260906103901 75 55 3.0 9.0 0.00 0.00 0.00 97 1009.3
20260906103355 75 93 3.0 9.0 0.00 0.00 0.00 97 1009.3
20260906102849 75 118 2.0 9.0 0.00 0.00 0.00 96 1009.3
20260906102343 75 112 2.0 9.0 0.00 0.00 0.00 96 1009.2
20260906102051 75 63 2.0 6.0 0.00 0.00 0.00 96 1009.2
20260906101332 76 116 2.0 6.0 0.00 0.00 0.00 96 1009.2
20260906100831 76 87 1.0 5.0 0.00 0.00 0.00 96 1009.3
20260906100334 76 75 1.0 5.0 0.00 0.00 0.00 96 1009.3
20260906095824 76 75 1.0 5.0 0.00 0.00 0.00 96 1009.3
20260906095321 76 110 1.0 3.0 0.00 0.00 0.00 96 1009.2
20260906094822 76 98 1.0 3.0 0.00 0.00 0.00 96 1009.2
20260906094253 76 130 1.0 4.0 0.00 0.00 0.00 96 1009.1
20260906093750 76 152 1.0 4.0 0.00 0.00 0.00 96 1009.1
20260906093251 76 143 1.0 4.0 0.00 0.00 0.00 96 1009.1
20260906093012 76 126 0.0 3.0 0.00 0.00 0.00 96 1009.1
20260906092249 76 84 0.0 1.0 0.00 0.00 0.00 95 1009.1
20260906091752 76 84 0.0 0.0 0.00 0.00 0.00 95 1009.1
20260906091249 76 84 0.0 2.0 0.00 0.00 0.00 95 1008.9
20260906090745 76 84 1.0 2.0 0.00 0.00 0.00 95 1008.9
20260906090713 76 84 0.0 2.0 0.00 0.00 0.00 95 1008.9
20260906085951 76 128 0.0 3.0 0.00 0.00 0.00 95 1008.8
20260906085217 76 103 1.0 3.0 0.00 0.00 0.00 95 1008.8
20260906084658 76 132 1.0 2.0 0.00 0.00 0.00 95 1008.8
20260906084158 76 148 1.0 3.0 0.00 0.00 0.00 95 1008.8
20260906083638 76 148 1.0 4.0 0.00 0.00 0.00 95 1008.8
20260906083124 76 103 1.0 4.0 0.00 0.00 0.00 95 1008.8
20260906082617 76 93 1.0 4.0 0.00 0.00 0.00 94 1008.7
20260906082111 76 127 1.0 5.0 0.00 0.00 0.00 94 1008.7
20260906081605 76 130 1.0 5.0 0.00 0.00 0.00 94 1008.7
20260906081100 76 116 1.0 5.0 0.00 0.00 0.00 94 1008.8
20260906080549 76 146 1.0 5.0 0.00 0.00 0.00 95 1008.8
20260906080048 76 150 2.0 4.0 0.00 0.00 0.00 94 1008.8
20260906075545 76 115 1.0 4.0 0.00 0.00 0.00 94 1008.8
20260906075040 76 102 1.0 3.0 0.00 0.00 0.00 94 1008.8
20260906074540 76 148 1.0 4.0 0.00 0.00 0.00 94 1008.8
20260906074018 77 92 1.0 4.0 0.00 0.00 0.00 94 1008.9
20260906073517 77 138 1.0 4.0 0.00 0.00 0.00 94 1008.9
20260906073011 77 153 1.0 3.0 0.00 0.00 0.00 94 1008.9
20260906072505 77 134 1.0 4.0 0.00 0.00 0.00 93 1009.0
20260906071959 77 134 1.0 4.0 0.00 0.00 0.00 93 1009.0
20260906071937 77 143 1.0 5.0 0.00 0.00 0.00 93 1009.0
20260906070947 77 135 1.0 5.0 0.00 0.00 0.00 93 1009.4
20260906070439 77 157 1.0 4.0 0.00 0.00 0.00 93 1009.4
20260906065935 77 114 1.0 4.0 0.00 0.00 0.00 93 1009.4
20260906065429 77 155 1.0 3.0 0.00 0.00 0.00 93 1009.4
20260906065158 77 130 1.0 4.0 0.00 0.00 0.00 93 1009.4
20260906064905 77 163 2.0 4.0 0.00 0.00 0.00 93 1009.4
20260906063906 77 112 1.0 4.0 0.00 0.00 0.00 92 1009.5
20260906063405 77 132 1.0 4.0 0.00 0.00 0.00 92 1009.5
20260906062900 77 138 1.0 2.0 0.00 0.00 0.00 92 1009.5
20260906062620 78 120 1.0 3.0 0.00 0.00 0.00 92 1009.4
20260906061847 78 140 1.0 4.0 0.00 0.00 0.00 92 1009.4
20260906061344 78 126 2.0 4.0 0.00 0.00 0.00 92 1009.4
20260906060836 78 125 2.0 4.0 0.00 0.00 0.00 92 1009.4
20260906060324 78 142 2.0 4.0 0.00 0.00 0.00 92 1009.4
20260906055825 78 111 1.0 4.0 0.00 0.00 0.00 91 1009.4
20260906055317 78 139 1.0 4.0 0.00 0.00 0.00 91 1009.6
20260906054811 78 118 1.0 3.0 0.00 0.00 0.00 91 1009.6
20260906054305 78 117 1.0 5.0 0.00 0.00 0.00 91 1009.6
20260906053754 78 146 2.0 5.0 0.00 0.00 0.00 90 1009.4
20260906053255 78 119 2.0 4.0 0.00 0.00 0.00 90 1009.4
20260906052750 78 143 2.0 4.0 0.00 0.00 0.00 90 1009.2
20260906052241 79 138 2.0 4.0 0.00 0.00 0.00 89 1009.2
20260906051735 79 140 2.0 4.0 0.00 0.00 0.00 89 1009.2
20260906051224 79 119 1.0 4.0 0.00 0.00 0.00 89 1009.4
20260906050953 79 118 1.0 4.0 0.00 0.00 0.00 88 1009.4
20260906050219 79 98 1.0 5.0 0.00 0.00 0.00 88 1009.4
20260906045937 79 107 1.0 5.0 0.00 0.00 0.00 88 1009.5
20260906045216 79 161 1.0 4.0 0.00 0.00 0.00 88 1009.6
20260906044700 79 135 1.0 3.0 0.00 0.00 0.00 88 1009.6
20260906044421 79 144 1.0 3.0 0.00 0.00 0.00 87 1009.5
20260906043648 79 79 2.0 4.0 0.00 0.00 0.00 87 1009.5
20260906043357 80 65 2.0 4.0 0.00 0.00 0.00 87 1009.5
20260906042639 80 124 1.0 4.0 0.00 0.00 0.00 87 1009.6
20260906042133 80 134 2.0 4.0 0.00 0.00 0.00 86 1009.6
20260906041624 80 146 2.0 4.0 0.00 0.00 0.00 86 1009.6
20260906041118 80 112 2.0 4.0 0.00 0.00 0.00 86 1009.6
20260906040606 80 101 1.0 4.0 0.00 0.00 0.00 85 1009.6
20260906040328 80 86 1.0 5.0 0.00 0.00 0.00 84 1009.6
20260906035558 80 92 1.0 5.0 0.00 0.00 0.00 84 1009.3
20260906035314 80 109 2.0 5.0 0.00 0.00 0.00 84 1009.4
20260906034549 81 161 2.0 5.0 0.00 0.00 0.00 83 1009.4
20260906034040 81 123 2.0 6.0 0.00 0.00 0.00 83 1009.2
20260906033529 81 121 3.0 6.0 0.00 0.00 0.00 83 1009.2
20260906033249 81 98 3.0 6.0 0.00 0.00 0.00 83 1009.2
20260906032521 81 80 2.0 6.0 0.00 0.00 0.00 83 1009.0
20260906032016 81 119 2.0 6.0 0.00 0.00 0.00 83 1009.0
20260906031514 81 69 2.0 6.0 0.00 0.00 0.00 83 1009.0
20260906031016 81 70 2.0 8.0 0.00 0.00 0.00 83 1009.2
20260906030514 81 112 3.0 8.0 0.00 0.00 0.00 83 1009.2
20260906030016 81 92 2.0 7.0 0.00 0.00 0.00 82 1009.2
20260906025517 81 80 2.0 4.0 0.00 0.00 0.00 82 1009.1
20260906025007 82 141 2.0 6.0 0.00 0.00 0.00 82 1009.2
20260906024459 82 109 2.0 6.0 0.00 0.00 0.00 81 1009.2
20260906024000 82 98 1.0 5.0 0.00 0.00 0.00 81 1008.9
20260906023455 82 119 2.0 5.0 0.00 0.00 0.00 81 1008.9
20260906022954 82 88 2.0 5.0 0.00 0.00 0.00 80 1008.9
20260906022451 82 57 2.0 5.0 0.00 0.00 0.00 80 1008.7
20260906021947 83 92 2.0 5.0 0.00 0.00 0.00 79 1008.7
20260906021714 83 88 2.0 5.0 0.00 0.00 0.00 79 1008.7
20260906021424 83 128 2.0 5.0 0.00 0.00 0.00 78 1008.8
20260906020702 83 105 1.0 4.0 0.00 0.00 0.00 78 1008.8
20260906015922 83 116 1.0 4.0 0.00 0.00 0.00 78 1008.8
20260906015418 83 89 2.0 4.0 0.00 0.00 0.00 78 1008.4
20260906014917 83 86 2.0 4.0 0.00 0.00 0.00 78 1008.4
20260906014639 83 88 2.0 4.0 0.00 0.00 0.00 77 1008.4
20260906013904 83 50 2.0 4.0 0.00 0.00 0.00 77 1008.3
20260906013350 83 105 1.0 3.0 0.00 0.00 0.00 77 1008.3
20260906012851 84 93 1.0 4.0 0.00 0.00 0.00 77 1008.4
20260906012349 84 118 1.0 4.0 0.00 0.00 0.00 76 1007.9
20260906011853 84 91 1.0 4.0 0.00 0.00 0.00 76 1007.9
20260906011338 85 84 2.0 4.0 0.00 0.00 0.00 75 1007.9
20260906010835 85 121 2.0 4.0 0.00 0.00 0.00 75 1007.9
20260906010335 85 80 1.0 4.0 0.00 0.00 0.00 74 1007.9
20260906010306 85 114 1.0 4.0 0.00 0.00 0.00 74 1008.0
20260906005545 85 94 2.0 4.0 0.00 0.00 0.00 73 1008.0
20260906004809 85 113 2.0 5.0 0.00 0.00 0.00 73 1008.0
20260906004757 86 120 2.0 5.0 0.00 0.00 0.00 72 1008.1
20260906003753 86 109 2.0 4.0 0.00 0.00 0.00 71 1008.1
20260906003251 87 103 2.0 5.0 0.00 0.00 0.00 70 1008.3
20260906002748 87 118 1.0 5.0 0.00 0.00 0.00 69 1008.3
20260906002239 87 115 1.0 4.0 0.00 0.00 0.00 69 1008.3
20260906001734 87 117 1.0 3.0 0.00 0.00 0.00 68 1008.3
20260906001228 88 117 2.0 5.0 0.00 0.00 0.00 67 1008.1
20260906000724 88 90 3.0 5.0 0.00 0.00 0.00 67 1008.3
20260906000212 88 113 2.0 5.0 0.00 0.00 0.00 66 1008.3
20260905235709 89 55 1.0 4.0 0.00 0.00 0.00 65 1008.5
20260905235204 89 110 1.0 5.0 0.00 0.00 0.00 64 1008.5
20260905234700 89 137 2.0 6.0 0.00 0.00 0.00 63 1008.5
20260905234151 89 102 2.0 6.0 0.00 0.00 0.00 63 1008.1
20260905233641 89 58 2.0 7.0 0.00 0.00 0.00 63 1008.1
20260905233342 89 123 2.0 4.0 0.00 0.00 0.00 63 1008.1
20260905233221 89 88 2.0 7.0 0.00 0.00 0.00 63 1008.3
20260905232127 90 119 2.0 4.0 0.00 0.00 0.00 62 1008.1
20260905232104 90 90 1.0 3.0 0.00 0.00 0.00 62 1008.1
20260905231115 90 90 2.0 5.0 0.00 0.00 0.00 61 1008.0
20260905230609 90 115 2.0 5.0 0.00 0.00 0.00 62 1008.0
20260905230059 90 100 2.0 7.0 0.00 0.00 0.00 61 1008.0
20260905225600 90 152 3.0 7.0 0.00 0.00 0.00 60 1007.8
20260905225054 90 93 2.0 6.0 0.00 0.00 0.00 60 1007.8
20260905224542 90 199 2.0 7.0 0.00 0.00 0.00 60 1007.8
20260905224043 90 88 3.0 9.0 0.00 0.00 0.00 60 1007.8
20260905223530 90 127 3.0 9.0 0.00 0.00 0.00 59 1007.8
20260905223240 90 113 3.0 7.0 0.00 0.00 0.00 59 1007.8
20260905222517 90 88 3.0 6.0 0.00 0.00 0.00 58 1007.7
20260905222007 90 140 3.0 9.0 0.00 0.00 0.00 58 1007.7
20260905221505 89 125 3.0 9.0 0.00 0.00 0.00 59 1007.7
20260905220959 89 105 3.0 9.0 0.00 0.00 0.00 60 1007.7
20260905220448 89 156 3.0 7.0 0.00 0.00 0.00 59 1007.8
20260905215947 90 105 3.0 9.0 0.00 0.00 0.00 59 1007.8
20260905215442 90 111 3.0 9.0 0.00 0.00 0.00 58 1007.8
20260905214935 90 97 3.0 7.0 0.00 0.00 0.00 57 1007.8
20260905214655 90 103 3.0 10.0 0.00 0.00 0.00 60 1007.8
20260905213923 90 166 4.0 10.0 0.00 0.00 0.00 58 1008.3
20260905213417 90 132 4.0 9.0 0.00 0.00 0.00 60 1008.3
20260905213137 90 134 3.0 7.0 0.00 0.00 0.00 59 1008.3
20260905212405 90 76 3.0 9.0 0.00 0.00 0.00 60 1008.4
20260905211859 90 145 4.0 9.0 0.00 0.00 0.00 59 1008.4
20260905211354 90 107 3.0 7.0 0.00 0.00 0.00 60 1008.4
20260905210847 90 108 3.0 7.0 0.00 0.00 0.00 61 1008.8
20260905210335 89 134 3.0 8.0 0.00 0.00 0.00 62 1008.7
20260905205835 89 170 3.0 8.0 0.00 0.00 0.00 62 1008.7
20260905205329 89 122 4.0 11.0 0.00 0.00 0.00 62 1008.9
20260905204823 89 126 3.0 11.0 0.00 0.00 0.00 61 1008.9
20260905204317 89 144 3.0 6.0 0.00 0.00 0.00 62 1008.9
20260905203816 89 139 3.0 6.0 0.00 0.00 0.00 62 1009.0
20260905203315 89 117 3.0 7.0 0.00 0.00 0.00 62 1009.0
20260905202812 88 98 2.0 7.0 0.00 0.00 0.00 65 1008.9
20260905202313 88 217 3.0 7.0 0.00 0.00 0.00 63 1009.2
20260905201812 88 124 3.0 7.0 0.00 0.00 0.00 64 1009.2
20260905201310 87 75 3.0 10.0 0.00 0.00 0.00 67 1009.2
20260905200810 87 94 4.0 11.0 0.00 0.00 0.00 65 1009.4
20260905200308 87 173 4.0 11.0 0.00 0.00 0.00 64 1009.4
20260905195808 87 101 4.0 9.0 0.00 0.00 0.00 63 1009.4
20260905195309 87 80 3.0 9.0 0.00 0.00 0.00 65 1009.6
20260905194806 87 109 3.0 7.0 0.00 0.00 0.00 64 1009.6
20260905194534 86 140 3.0 12.0 0.00 0.00 0.00 66 1009.6
20260905193806 86 96 4.0 12.0 0.00 0.00 0.00 64 1009.9
20260905193305 86 84 3.0 9.0 0.00 0.00 0.00 65 1009.9
20260905192804 85 82 3.0 10.0 0.00 0.00 0.00 67 1010.0
20260905192306 85 84 3.0 10.0 0.00 0.00 0.00 68 1009.9
20260905191804 84 10 2.0 4.0 0.00 0.00 0.00 69 1009.9
20260905191305 83 105 3.0 7.0 0.00 0.00 0.00 69 1010.1
20260905190801 83 43 3.0 9.0 0.00 0.00 0.00 68 1010.1
20260905190256 83 114 3.0 9.0 0.00 0.00 0.00 68 1010.1
20260905185749 83 152 3.0 9.0 0.00 0.00 0.00 67 1010.5
20260905185503 83 22 3.0 9.0 0.00 0.00 0.00 66 1010.5
20260905184733 83 355 4.0 12.0 0.00 0.00 0.00 65 1010.5
20260905184231 84 99 4.0 12.0 0.00 0.00 0.00 65 1010.7
20260905183725 84 68 4.0 11.0 0.00 0.00 0.00 63 1010.7
20260905183219 84 130 4.0 9.0 0.00 0.00 0.00 64 1010.8
20260905182713 84 103 5.0 12.0 0.00 0.00 0.00 66 1010.8
20260905182203 83 342 5.0 12.0 0.00 0.00 0.00 65 1010.8
20260905181701 83 355 5.0 12.0 0.00 0.00 0.00 64 1010.7
20260905181155 83 16 4.0 12.0 0.00 0.00 0.00 64 1010.6
20260905180649 83 99 4.0 12.0 0.00 0.00 0.00 65 1010.6
20260905180144 83 24 4.0 10.0 0.00 0.00 0.00 63 1010.6
20260905180112 83 340 4.0 11.0 0.00 0.00 0.00 63 1010.7
20260905175127 83 11 3.0 11.0 0.00 0.00 0.00 62 1010.7
20260905174622 83 324 3.0 7.0 0.00 0.00 0.00 62 1010.7
20260905174118 83 22 4.0 10.0 0.00 0.00 0.00 62 1010.9